﻿測定場所 (Monitoring sites),日付 (Measurement date),時間 (Measurement time),線量率 最大値 (max) μGy/h,線量率 最小値 (min) μGy/h,線量率 平均値 (average) μGy/h,
足立 (Adachi),2013-09-08,23:01～24:00,0.0554,0.0449,0.0495,
足立 (Adachi),2013-09-08,22:01～23:00,0.0670,0.0514,0.0579,
足立 (Adachi),2013-09-08,21:01～22:00,0.0877,0.0665,0.0741,
足立 (Adachi),2013-09-08,20:01～21:00,0.0925,0.0568,0.0798,
足立 (Adachi),2013-09-08,19:01～20:00,0.0612,0.0467,0.0535,
足立 (Adachi),2013-09-08,18:01～19:00,0.0583,0.0478,0.0531,
足立 (Adachi),2013-09-08,17:01～18:00,0.0618,0.0540,0.0580,
足立 (Adachi),2013-09-08,16:01～17:00,0.0643,0.0556,0.0604,
足立 (Adachi),2013-09-08,15:01～16:00,0.0616,0.0472,0.0532,
足立 (Adachi),2013-09-08,14:01～15:00,0.0511,0.0445,0.0478,
足立 (Adachi),2013-09-08,13:01～14:00,0.0511,0.0451,0.0478,
足立 (Adachi),2013-09-08,12:01～13:00,0.0509,0.0454,0.0478,
足立 (Adachi),2013-09-08,11:01～12:00,0.0504,0.0454,0.0479,
足立 (Adachi),2013-09-08,10:01～11:00,0.0522,0.0444,0.0477,
足立 (Adachi),2013-09-08,09:01～10:00,0.0515,0.0442,0.0470,
足立 (Adachi),2013-09-08,08:01～09:00,0.0512,0.0436,0.0472,
足立 (Adachi),2013-09-08,07:01～08:00,0.0513,0.0449,0.0479,
足立 (Adachi),2013-09-08,06:01～07:00,0.0523,0.0460,0.0491,
足立 (Adachi),2013-09-08,05:01～06:00,0.0512,0.0444,0.0475,
足立 (Adachi),2013-09-08,04:01～05:00,0.0514,0.0439,0.0475,
足立 (Adachi),2013-09-08,03:01～04:00,0.0498,0.0445,0.0473,
足立 (Adachi),2013-09-08,02:01～03:00,0.0505,0.0443,0.0474,
足立 (Adachi),2013-09-08,01:01～02:00,0.0515,0.0444,0.0474,
足立 (Adachi),2013-09-08,00:01～01:00,0.0503,0.0429,0.0473,
足立 (Adachi),2013-09-07,23:01～24:00,0.0496,0.0449,0.0477,
足立 (Adachi),2013-09-07,22:01～23:00,0.0506,0.0445,0.0473,
足立 (Adachi),2013-09-07,21:01～22:00,0.0508,0.0434,0.0474,
足立 (Adachi),2013-09-07,20:01～21:00,0.0503,0.0438,0.0469,
足立 (Adachi),2013-09-07,19:01～20:00,0.0501,0.0446,0.0473,
足立 (Adachi),2013-09-07,18:01～19:00,0.0506,0.0431,0.0471,
足立 (Adachi),2013-09-07,17:01～18:00,0.0507,0.0442,0.0475,
足立 (Adachi),2013-09-07,16:01～17:00,0.0500,0.0438,0.0478,
足立 (Adachi),2013-09-07,15:01～16:00,0.0514,0.0449,0.0477,
足立 (Adachi),2013-09-07,14:01～15:00,0.0495,0.0440,0.0471,
足立 (Adachi),2013-09-07,13:01～14:00,0.0503,0.0443,0.0472,
足立 (Adachi),2013-09-07,12:01～13:00,0.0502,0.0449,0.0476,
足立 (Adachi),2013-09-07,11:01～12:00,0.0503,0.0439,0.0471,
足立 (Adachi),2013-09-07,10:01～11:00,0.0495,0.0438,0.0469,
足立 (Adachi),2013-09-07,09:01～10:00,0.0496,0.0433,0.0467,
足立 (Adachi),2013-09-07,08:01～09:00,0.0517,0.0436,0.0470,
足立 (Adachi),2013-09-07,07:01～08:00,0.0493,0.0418,0.0465,
足立 (Adachi),2013-09-07,06:01～07:00,0.0489,0.0433,0.0464,
足立 (Adachi),2013-09-07,05:01～06:00,0.0499,0.0450,0.0473,
足立 (Adachi),2013-09-07,04:01～05:00,0.0504,0.0434,0.0470,
足立 (Adachi),2013-09-07,03:01～04:00,0.0501,0.0448,0.0471,
足立 (Adachi),2013-09-07,02:01～03:00,0.0496,0.0443,0.0470,
足立 (Adachi),2013-09-07,01:01～02:00,0.0504,0.0433,0.0470,
足立 (Adachi),2013-09-07,00:01～01:00,0.0505,0.0437,0.0471,
足立 (Adachi),2013-09-06,23:01～24:00,0.0509,0.0445,0.0472,
足立 (Adachi),2013-09-06,22:01～23:00,0.0492,0.0445,0.0468,
足立 (Adachi),2013-09-06,21:01～22:00,0.0490,0.0440,0.0467,
足立 (Adachi),2013-09-06,20:01～21:00,0.0498,0.0429,0.0468,
足立 (Adachi),2013-09-06,19:01～20:00,0.0513,0.0437,0.0471,
足立 (Adachi),2013-09-06,18:01～19:00,0.0500,0.0438,0.0467,
足立 (Adachi),2013-09-06,17:01～18:00,0.0495,0.0447,0.0468,
足立 (Adachi),2013-09-06,16:01～17:00,0.0496,0.0434,0.0467,
足立 (Adachi),2013-09-06,15:01～16:00,0.0493,0.0439,0.0459,
足立 (Adachi),2013-09-06,14:01～15:00,0.0501,0.0429,0.0460,
足立 (Adachi),2013-09-06,13:01～14:00,0.0493,0.0433,0.0460,
足立 (Adachi),2013-09-06,12:01～13:00,0.0496,0.0422,0.0462,
足立 (Adachi),2013-09-06,11:01～12:00,0.0490,0.0435,0.0460,
足立 (Adachi),2013-09-06,10:01～11:00,0.0502,0.0431,0.0463,
足立 (Adachi),2013-09-06,09:01～10:00,0.0501,0.0438,0.0460,
足立 (Adachi),2013-09-06,08:01～09:00,0.0484,0.0408,0.0449,
足立 (Adachi),2013-09-06,07:01～08:00,0.0482,0.0419,0.0446,
足立 (Adachi),2013-09-06,06:01～07:00,0.0475,0.0424,0.0449,
足立 (Adachi),2013-09-06,05:01～06:00,0.0510,0.0429,0.0464,
足立 (Adachi),2013-09-06,04:01～05:00,0.0504,0.0446,0.0472,
足立 (Adachi),2013-09-06,03:01～04:00,0.0495,0.0437,0.0470,
足立 (Adachi),2013-09-06,02:01～03:00,0.0520,0.0440,0.0468,
足立 (Adachi),2013-09-06,01:01～02:00,0.0497,0.0436,0.0468,
足立 (Adachi),2013-09-06,00:01～01:00,0.0500,0.0438,0.0468,
足立 (Adachi),2013-09-05,23:01～24:00,0.0494,0.0430,0.0464,
足立 (Adachi),2013-09-05,22:01～23:00,0.0497,0.0438,0.0464,
足立 (Adachi),2013-09-05,21:01～22:00,0.0500,0.0435,0.0466,
足立 (Adachi),2013-09-05,20:01～21:00,0.0501,0.0425,0.0463,
足立 (Adachi),2013-09-05,19:01～20:00,0.0486,0.0428,0.0457,
足立 (Adachi),2013-09-05,18:01～19:00,0.0498,0.0427,0.0460,
足立 (Adachi),2013-09-05,17:01～18:00,0.0493,0.0428,0.0458,
足立 (Adachi),2013-09-05,16:01～17:00,0.0500,0.0428,0.0459,
足立 (Adachi),2013-09-05,15:01～16:00,0.0494,0.0429,0.0458,
足立 (Adachi),2013-09-05,14:01～15:00,0.0500,0.0426,0.0456,
足立 (Adachi),2013-09-05,13:01～14:00,0.0488,0.0432,0.0455,
足立 (Adachi),2013-09-05,12:01～13:00,0.0496,0.0426,0.0459,
足立 (Adachi),2013-09-05,11:01～12:00,0.0502,0.0413,0.0473,
足立 (Adachi),2013-09-05,10:01～11:00,0.0564,0.0463,0.0507,
足立 (Adachi),2013-09-05,09:01～10:00,0.0553,0.0443,0.0493,
足立 (Adachi),2013-09-05,08:01～09:00,0.0504,0.0435,0.0470,
足立 (Adachi),2013-09-05,07:01～08:00,0.0512,0.0432,0.0470,
足立 (Adachi),2013-09-05,06:01～07:00,0.0518,0.0451,0.0481,
足立 (Adachi),2013-09-05,05:01～06:00,0.0499,0.0434,0.0465,
足立 (Adachi),2013-09-05,04:01～05:00,0.0495,0.0428,0.0466,
足立 (Adachi),2013-09-05,03:01～04:00,0.0495,0.0438,0.0464,
足立 (Adachi),2013-09-05,02:01～03:00,0.0493,0.0438,0.0463,
足立 (Adachi),2013-09-05,01:01～02:00,0.0497,0.0438,0.0467,
足立 (Adachi),2013-09-05,00:01～01:00,0.0502,0.0437,0.0471,
足立 (Adachi),2013-09-04,23:01～24:00,0.0507,0.0436,0.0467,
足立 (Adachi),2013-09-04,22:01～23:00,0.0499,0.0439,0.0470,
足立 (Adachi),2013-09-04,21:01～22:00,0.0520,0.0439,0.0473,
足立 (Adachi),2013-09-04,20:01～21:00,0.0511,0.0442,0.0477,
足立 (Adachi),2013-09-04,19:01～20:00,0.0514,0.0451,0.0474,
足立 (Adachi),2013-09-04,18:01～19:00,0.0510,0.0455,0.0476,
足立 (Adachi),2013-09-04,17:01～18:00,0.0495,0.0439,0.0471,
足立 (Adachi),2013-09-04,16:01～17:00,0.0504,0.0433,0.0472,
足立 (Adachi),2013-09-04,15:01～16:00,0.0507,0.0442,0.0472,
足立 (Adachi),2013-09-04,14:01～15:00,0.0509,0.0426,0.0467,
足立 (Adachi),2013-09-04,13:01～14:00,0.0497,0.0456,0.0477,
足立 (Adachi),2013-09-04,12:01～13:00,0.0521,0.0436,0.0485,
足立 (Adachi),2013-09-04,11:01～12:00,0.0522,0.0454,0.0487,
足立 (Adachi),2013-09-04,10:01～11:00,0.0516,0.0449,0.0487,
足立 (Adachi),2013-09-04,09:01～10:00,0.0510,0.0454,0.0480,
足立 (Adachi),2013-09-04,08:01～09:00,0.0526,0.0434,0.0486,
足立 (Adachi),2013-09-04,07:01～08:00,0.0551,0.0465,0.0497,
足立 (Adachi),2013-09-04,06:01～07:00,0.0551,0.0489,0.0521,
足立 (Adachi),2013-09-04,05:01～06:00,0.0571,0.0509,0.0538,
足立 (Adachi),2013-09-04,04:01～05:00,0.0577,0.0502,0.0528,
足立 (Adachi),2013-09-04,03:01～04:00,0.0556,0.0479,0.0521,
足立 (Adachi),2013-09-04,02:01～03:00,0.0556,0.0481,0.0516,
足立 (Adachi),2013-09-04,01:01～02:00,0.0548,0.0478,0.0513,
足立 (Adachi),2013-09-04,00:01～01:00,0.0549,0.0477,0.0516,
足立 (Adachi),2013-09-03,23:01～24:00,0.0550,0.0482,0.0516,
足立 (Adachi),2013-09-03,22:01～23:00,0.0549,0.0472,0.0511,
足立 (Adachi),2013-09-03,21:01～22:00,0.0538,0.0481,0.0511,
足立 (Adachi),2013-09-03,20:01～21:00,0.0548,0.0484,0.0510,
足立 (Adachi),2013-09-03,19:01～20:00,0.0537,0.0477,0.0512,
足立 (Adachi),2013-09-03,18:01～19:00,0.0550,0.0484,0.0513,
足立 (Adachi),2013-09-03,17:01～18:00,0.0548,0.0460,0.0507,
足立 (Adachi),2013-09-03,16:01～17:00,0.0540,0.0470,0.0511,
足立 (Adachi),2013-09-03,15:01～16:00,0.0550,0.0468,0.0510,
足立 (Adachi),2013-09-03,14:01～15:00,0.0540,0.0475,0.0507,
足立 (Adachi),2013-09-03,13:01～14:00,0.0550,0.0469,0.0503,
足立 (Adachi),2013-09-03,12:01～13:00,0.0542,0.0464,0.0501,
足立 (Adachi),2013-09-03,11:01～12:00,0.0532,0.0478,0.0505,
足立 (Adachi),2013-09-03,10:01～11:00,0.0541,0.0477,0.0504,
足立 (Adachi),2013-09-03,09:01～10:00,0.0537,0.0463,0.0504,
足立 (Adachi),2013-09-03,08:01～09:00,0.0532,0.0473,0.0502,
足立 (Adachi),2013-09-03,07:01～08:00,0.0536,0.0479,0.0504,
足立 (Adachi),2013-09-03,06:01～07:00,0.0543,0.0470,0.0505,
足立 (Adachi),2013-09-03,05:01～06:00,0.0540,0.0479,0.0505,
足立 (Adachi),2013-09-03,04:01～05:00,0.0536,0.0466,0.0504,
足立 (Adachi),2013-09-03,03:01～04:00,0.0548,0.0468,0.0508,
足立 (Adachi),2013-09-03,02:01～03:00,0.0546,0.0483,0.0512,
足立 (Adachi),2013-09-03,01:01～02:00,0.0544,0.0485,0.0510,
足立 (Adachi),2013-09-03,00:01～01:00,0.0543,0.0483,0.0509,
足立 (Adachi),2013-09-02,23:01～24:00,0.0557,0.0477,0.0508,
足立 (Adachi),2013-09-02,22:01～23:00,0.0548,0.0480,0.0511,
足立 (Adachi),2013-09-02,21:01～22:00,0.0550,0.0479,0.0520,
足立 (Adachi),2013-09-02,20:01～21:00,0.0554,0.0481,0.0519,
足立 (Adachi),2013-09-02,19:01～20:00,0.0552,0.0494,0.0523,
足立 (Adachi),2013-09-02,18:01～19:00,0.0578,0.0480,0.0519,
足立 (Adachi),2013-09-02,17:01～18:00,0.0558,0.0468,0.0522,
足立 (Adachi),2013-09-02,16:01～17:00,0.0538,0.0488,0.0514,
足立 (Adachi),2013-09-02,15:01～16:00,0.0543,0.0488,0.0514,
足立 (Adachi),2013-09-02,14:01～15:00,0.0541,0.0473,0.0509,
足立 (Adachi),2013-09-02,13:01～14:00,0.0536,0.0483,0.0512,
足立 (Adachi),2013-09-02,12:01～13:00,0.0545,0.0472,0.0508,
足立 (Adachi),2013-09-02,11:01～12:00,0.0538,0.0482,0.0510,
足立 (Adachi),2013-09-02,10:01～11:00,0.0546,0.0470,0.0509,
足立 (Adachi),2013-09-02,09:01～10:00,0.0545,0.0465,0.0508,
足立 (Adachi),2013-09-02,08:01～09:00,0.0538,0.0464,0.0510,
足立 (Adachi),2013-09-02,07:01～08:00,0.0545,0.0477,0.0511,
足立 (Adachi),2013-09-02,06:01～07:00,0.0545,0.0482,0.0518,
足立 (Adachi),2013-09-02,05:01～06:00,0.0553,0.0483,0.0520,
足立 (Adachi),2013-09-02,04:01～05:00,0.0546,0.0482,0.0521,
足立 (Adachi),2013-09-02,03:01～04:00,0.0549,0.0482,0.0523,
足立 (Adachi),2013-09-02,02:01～03:00,0.0559,0.0495,0.0519,
足立 (Adachi),2013-09-02,01:01～02:00,0.0554,0.0495,0.0523,
足立 (Adachi),2013-09-02,00:01～01:00,0.0558,0.0485,0.0520,
